This demonstration page uses our WeatherBlox Daily Observations layout. Learn more.

40.92945, -100.16068

Hourly Observations for December 15, 2016

Temp ( °F °C ) Dew Point ( °F °C ) Humidity (%) Winds ( mph kmh ) Pressure ( in mb ) Visibility ( mi km ) Precip ( " mm )
12:15 am 00:15 Mostly Cloudy 15 -9.6 8 -13.6 73 73 Calm 30.56 1035 10 16.0934 N/A
12:35 am 00:35 Cloudy 15 -9.2 8 -13.1 74 74 Calm 30.56 1035 10 16.0934 N/A
12:55 am 00:55 Cloudy 15 -9.2 10 -12.5 77 77 Calm 30.56 1035 10 16.0934 N/A
1:15 am 01:15 Cloudy 16 -9 9 -12.8 74 74 E 3 6 30.56 1035 10 16.0934 N/A
1:35 am 01:35 Cloudy 17 -8.5 9 -12.6 73 73 Calm 30.56 1035 10 16.0934 N/A
1:55 am 01:55 Cloudy 18 -7.7 9 -12.6 68 68 E 3 6 30.53 1034 10 16.0934 N/A
2:15 am 02:15 Cloudy 20 -6.9 9 -12.8 63 63 Calm 30.53 1034 10 16.0934 N/A
2:35 am 02:35 Cloudy 20 -6.6 9 -12.7 62 62 Calm 30.5 1033 10 16.0934 N/A
2:55 am 02:55 Cloudy 19 -7 9 -12.6 65 65 E 3 6 30.5 1033 10 16.0934 N/A
3:15 am 03:15 Cloudy 20 -6.8 9 -12.6 64 64 E 3 6 30.5 1033 10 16.0934 N/A
3:35 am 03:35 Cloudy 20 -6.8 9 -12.6 64 64 ENE 5 7 30.5 1033 10 16.0934 N/A
3:55 am 03:55 Cloudy 20 -6.8 9 -13 62 62 E 7 11 30.48 1032 10 16.0934 N/A
4:15 am 04:15 Cloudy 21 -6.3 9 -13 59 59 ESE 6 9 30.48 1032 10 16.0934 N/A
4:35 am 04:35 Cloudy 21 -6.1 9 -13 59 59 ESE 7 11 30.45 1031 10 16.0934 N/A
4:55 am 04:55 Cloudy 20 -6.5 9 -13 60 60 ESE 5 7 30.45 1031 10 16.0934 N/A
5:15 am 05:15 Cloudy 21 -6.1 9 -12.7 60 60 ESE 5 7 30.45 1031 10 16.0934 N/A
5:35 am 05:35 Cloudy 21 -6.1 9 -12.6 60 60 ESE 7 11 30.45 1031 10 16.0934 N/A
5:55 am 05:55 Cloudy 22 -5.6 10 -12.5 59 59 SE 6 9 30.39 1029 10 16.0934 N/A
6:15 am 06:15 Cloudy 22 -5.7 9 -12.6 59 59 SSE 7 11 30.39 1029 10 16.0934 N/A
6:35 am 06:35 Cloudy 23 -5 8 -13.4 52 52 SSE 7 11 30.39 1029 10 16.0934 N/A
6:55 am 06:55 Cloudy 23 -5 7 -13.9 50 50 S 9 15 30.39 1029 10 16.0934 N/A
7:15 am 07:15 Partly Cloudy 21 -5.9 6 -14.2 52 52 S 9 15 30.39 1029 10 16.0934 N/A
7:35 am 07:35 Partly Cloudy 21 -6.3 6 -14.5 53 53 S 9 15 30.42 1030 10 16.0934 N/A
7:55 am 07:55 Partly Cloudy 20 -6.7 6 -14.7 53 53 S 12 19 30.42 1030 10 16.0934 N/A
8:15 am 08:15 Sunny 20 -6.7 5 -15.1 52 52 S 10 17 30.42 1030 10 16.0934 N/A
8:35 am 08:35 Sunny 20 -6.8 5 -15 52 52 SSE 13 20 30.39 1029 10 16.0934 N/A
8:55 am 08:55 Sunny 20 -6.5 5 -15 51 51 SSE 13 20 30.39 1029 10 16.0934 N/A
9:15 am 09:15 Sunny 21 -6.2 5 -15.1 50 50 SSE 13 20 30.36 1028 10 16.0934 N/A
9:35 am 09:35 Sunny 21 -6 4 -15.5 47 47 S 13 20 30.36 1028 10 16.0934 N/A
9:55 am 09:55 Sunny 22 -5.4 3 -16.1 43 43 S 16 26 30.36 1028 10 16.0934 N/A
10:15 am 10:15 Sunny 24 -4.7 2 -16.6 39 39 S 15 24 30.36 1028 10 16.0934 N/A
10:35 am 10:35 Sunny 24 -4.6 2 -16.9 38 38 S 21 33 30.33 1027 10 16.0934 N/A
10:55 am 10:55 Sunny 25 -4.1 1 -17.3 35 35 S 22 35 30.33 1027 10 16.0934 N/A
11:15 am 11:15 Sunny 25 -4 1 -17.5 35 35 S 23 37 30.27 1025 10 16.0934 N/A
11:35 am 11:35 Sunny 26 -3.2 1 -17.3 33 33 SSE 23 37 30.24 1024 10 16.0934 N/A
11:55 am 11:55 Sunny 27 -2.6 -1 -18.5 29 29 S 29 46 30.21 1023 10 16.0934 N/A
12:15 pm 12:15 Sunny 28 -2 -3 -19.2 26 26 S 25 41 30.18 1022 10 16.0934 N/A
12:35 pm 12:35 Sunny 28 -2 -4 -19.9 24 24 S 26 43 30.18 1022 10 16.0934 N/A
12:55 pm 12:55 Partly Cloudy 29 -1.7 -4 -20.2 23 23 S 28 44 30.15 1021 10 16.0934 N/A
1:15 pm 13:15 Partly Cloudy 29 -1.8 -5 -20.4 23 23 S 25 41 30.15 1021 10 16.0934 N/A
1:35 pm 13:35 Mostly Cloudy 29 -1.5 -4 -20 23 23 S 30 48 30.12 1020 10 16.0934 N/A
1:55 pm 13:55 Partly Cloudy 29 -1.7 -3 -19.5 25 25 S 25 41 30.09 1019 10 16.0934 N/A
2:15 pm 14:15 Partly Cloudy 29 -1.5 -2 -18.7 26 26 S 26 43 30.06 1018 10 16.0934 N/A
2:35 pm 14:35 Sunny 29 -1.5 0 -18 27 27 S 21 33 30.12 1020 10 16.0934 N/A
2:55 pm 14:55 Sunny 30 -1 1 -17.2 28 28 S 21 33 30.06 1018 10 16.0934 N/A
3:15 pm 15:15 Sunny 30 -1 1 -17.4 28 28 S 25 41 30.06 1018 10 16.0934 N/A
3:35 pm 15:35 Sunny 30 -1.3 0 -17.7 28 28 S 25 41 30.06 1018 10 16.0934 N/A
3:55 pm 15:55 Sunny 29 -1.5 -1 -18.2 27 27 S 22 35 30.06 1018 10 16.0934 N/A
4:15 pm 16:15 Sunny 29 -1.5 -2 -18.7 26 26 S 22 35 30.06 1018 10 16.0934 N/A
4:35 pm 16:35 Sunny 29 -1.7 -3 -19.5 25 25 S 16 26 30.06 1018 10 16.0934 N/A
4:55 pm 16:55 Sunny 28 -2.1 -3 -19.7 25 25 S 17 28 30.06 1018 10 16.0934 N/A
5:15 pm 17:15 Clear 27 -2.6 -4 -19.8 26 26 S 14 22 30.06 1018 10 16.0934 N/A
5:35 pm 17:35 Clear 26 -3.1 -3 -19.6 27 27 SSE 16 26 30.03 1017 10 16.0934 N/A
5:55 pm 17:55 Clear 26 -3.4 -2 -19 29 29 SSE 13 20 30.06 1018 10 16.0934 N/A
6:15 pm 18:15 Clear 26 -3.6 -2 -18.9 30 30 SSE 14 22 30.06 1018 10 16.0934 N/A
6:35 pm 18:35 Clear 25 -4 -2 -18.7 31 31 SSE 14 22 30.06 1018 10 16.0934 N/A
6:55 pm 18:55 Clear 25 -4 -1 -18.6 31 31 SSE 15 24 30.03 1017 10 16.0934 N/A
7:15 pm 19:15 Clear 25 -4 -1 -18.5 32 32 SSE 14 22 30.03 1017 10 16.0934 N/A
7:35 pm 19:35 Clear 25 -4.1 -1 -18.2 33 33 SSE 14 22 30.06 1018 10 16.0934 N/A
7:55 pm 19:55 Clear 25 -4 -1 -18.1 33 33 SSE 13 20 30.03 1017 10 16.0934 N/A
8:15 pm 20:15 Clear 25 -4 -1 -18.1 33 33 SSE 14 22 30.03 1017 10 16.0934 N/A
8:35 pm 20:35 Clear 24 -4.2 -1 -18.1 33 33 SSE 14 22 30.03 1017 10 16.0934 N/A
8:55 pm 20:55 Clear 24 -4.5 -1 -18.3 33 33 SSE 14 22 30 1016 10 16.0934 N/A
9:15 pm 21:15 Clear 24 -4.6 -1 -18.2 34 34 SSE 14 22 29.97 1015 10 16.0934 N/A
9:35 pm 21:35 Clear 24 -4.7 -1 -18.2 34 34 SSE 12 19 30 1016 10 16.0934 N/A
9:55 pm 21:55 Clear 24 -4.6 0 -18 35 35 S 13 20 29.97 1015 10 16.0934 N/A
10:15 pm 22:15 Clear 24 -4.5 0 -17.9 35 35 S 15 24 29.97 1015 10 16.0934 N/A
10:35 pm 22:35 Clear 23 -5 1 -17.2 38 38 SSE 12 19 29.97 1015 10 16.0934 N/A
10:55 pm 22:55 Clear 23 -5 1 -17.1 38 38 S 15 24 29.97 1015 10 16.0934 N/A
11:15 pm 23:15 Clear 22 -5.3 2 -16.8 40 40 SSE 12 19 29.94 1014 10 16.0934 N/A
11:35 pm 23:35 Clear 22 -5.5 2 -16.4 42 42 SSE 12 19 29.94 1014 10 16.0934 N/A
11:55 pm 23:55 Clear 22 -5.5 3 -16 44 44 SSE 12 19 29.91 1013 10 16.0934 N/A

Powered by AerisWeather